This demonstration page uses our WeatherBlox Daily Observations layout. Learn more.

Left ArrowRight Arrow

34.74481, -87.66753

Hourly Observations for August 22, 2015

Temp ( °F °C ) Dew Point ( °F °C ) Humidity (%) Winds ( mph kmh ) Pressure ( in mb ) Visibility ( mi km ) Precip ( " mm )
12:53 am 00:53 Clear 72 22.2 67 19.4 84 84 ENE 3 6 30.01 1016 10 16 0.00 0.00
1:53 am 01:53 Clear 71 21.7 67 19.4 87 87 Calm 30.01 1016 10 16 0.00 0.00
2:53 am 02:53 Clear 71 21.7 68 20 90 90 SSW 3 6 30.03 1017 10 16 0.00 0.00
3:53 am 03:53 Clear 70 21.1 67 19.4 90 90 Calm 30.04 1017 8 13 0.00 0.00
4:53 am 04:53 Clear 70 21.1 67 19.4 90 90 E 3 6 30.05 1018 7 11 0.00 0.00
5:53 am 05:53 Clear 70 21.1 67 19.4 90 90 Calm 30.06 1018 8 13 0.00 0.00
6:53 am 06:53 Sunny 71 21.7 68 20 90 90 Calm 30.07 1018 8 13 0.00 0.00
7:53 am 07:53 Sunny 72 22.2 69 20.6 91 91 Calm 30.08 1019 8 13 0.00 0.00
8:53 am 08:53 Partly Cloudy 75 23.9 69 20.6 82 82 Calm 30.09 1019 10 16 0.00 0.00
9:53 am 09:53 Sunny 77 25 70 21.1 79 79 Calm 30.09 1019 10 16 0.00 0.00
10:53 am 10:53 Sunny 80 26.7 71 21.7 74 74 SE 3 6 30.08 1019 10 16 0.00 0.00
11:53 am 11:53 Mostly Sunny 83 28.3 72 22.2 70 70 S 5 7 30.07 1018 10 16 0.00 0.00
12:53 pm 12:53 Mostly Cloudy 85 29.4 73 22.8 68 68 Calm 30.05 1018 10 16 0.00 0.00
1:53 pm 13:53 Partly Cloudy 83 28.3 75 23.9 77 77 N 6 9 30.04 1017 10 16 0.00 0.03
2:51 pm 14:51 Cloudy with Light Rain 79 26 73 23 84 84 NNW 3 6 30.00 1016 9 14 0.03 0.76
2:53 pm 14:53 Cloudy 80 26.7 74 23.3 82 82 NNW 6 9 30.01 1016 10 16 0.03 0.76
3:03 pm 15:03 Mostly Cloudy 80 26.7 74 23.3 82 82 ENE 5 7 30.00 1016 9 14 0.00 0.00
3:19 pm 15:19 Partly Cloudy with Nearby Thunderstorms 82 27.8 74 23.3 77 77 VRB 3 6 30.00 1016 10 16 0.00 0.00
3:53 pm 15:53 Mostly Cloudy with Nearby Thunderstorms 78 25.6 70 21.1 76 76 Calm 29.99 1016 10 16 0.00 0.03
4:15 pm 16:15 Cloudy with Thunderstorms 76 24.4 71 21.7 85 85 VRB 3 6 29.97 1015 10 16 0.01 0.25
4:34 pm 16:34 Cloudy with Strong Thunderstorms 75 23.9 72 22.2 90 90 W 18 30 30.00 1016 2 2 0.14 3.56
4:38 pm 16:38 Cloudy with Strong Thunderstorms 74 23.3 71 21.7 91 91 W 16 26 30.00 1016 1 1 0.42 10.67
4:42 pm 16:42 Cloudy with Strong Thunderstorms 73 22.8 71 21.7 94 94 N 14 22 29.97 1015 0 0 0.74 18.80
4:48 pm 16:48 Cloudy with Thunderstorms 73 23 72 22 94 94 N 13 20 30.00 1016 0 0 0.84 21.34
4:53 pm 16:53 Cloudy with Thunderstorms 74 23.3 71 21.7 91 91 VRB 6 9 30.01 1016 1 2 0.85 21.59
4:55 pm 16:55 Cloudy with Thunderstorms 74 23.3 71 21.7 91 91 NNE 6 9 30.00 1016 3 5 0.00 0.03
5:03 pm 17:03 Mostly Cloudy with Thunderstorms 75 23.9 72 22.2 90 90 VRB 6 9 30.00 1016 8 13 0.00 0.03
5:22 pm 17:22 Partly Cloudy with Nearby Thunderstorms 75 23.9 72 22.2 90 90 VRB 3 6 30.00 1016 7 11 0.00 0.03
5:35 pm 17:35 Mostly Sunny 76 24.4 72 22.2 88 88 NE 6 9 30.00 1016 9 14 0.00 0.03
5:53 pm 17:53 Partly Cloudy 76 24.4 71 21.7 85 85 VRB 6 9 30.01 1016 10 16 0.00 0.03
6:53 pm 18:53 Mostly Cloudy 75 23.9 71 21.7 88 88 Calm 30.00 1016 10 16 0.00 0.00
7:53 pm 19:53 Mostly Clear 74 23.3 71 21.7 91 91 E 5 7 30.01 1016 10 16 0.00 0.00
8:53 pm 20:53 Partly Cloudy with Light Rain 74 23.3 71 21.7 91 91 Calm 30.02 1017 9 14 0.00 0.03
9:53 pm 21:53 Clear 74 23.3 71 21.7 91 91 Calm 30.03 1017 10 16 0.01 0.25
10:53 pm 22:53 Clear 73 22.8 70 21.1 90 90 E 3 6 30.01 1016 10 16 0.00 0.00
11:53 pm 23:53 Clear 72 22.2 69 20.6 91 91 ENE 3 6 29.99 1016 9 14 0.00 0.00

Powered by AerisWeather